Precipitable_Water
0.56 0.56 0.55 0.55 0.54 0.54 0.54 0.53 0.53 0.52 0.52 0.51 0.51 0.51 0.52 0.53 0.53 0.53 0.53 0.53 0.53 0.53 0.53 0.52 0.50 0.49 0.47 0.44 0.43 0.42 0.41 0.33 0.29 0.25 0.19 0.18 0.19 0.24 0.27 0.37 0.45 0.52 0.61 0.46 0.39 0.43 0.54 0.65 0.68 0.91 1.01 1.14 1.17 1.11 1.23 1.27 1.38 1.30 1.01 0.95 0.93 1.03 1.08 1.24 1.18 1.25 1.38 1.14 1.17 1.19 1.19 1.09 0.99 1.17 1.22 1.28 1.14 1.05 1.00 0.94 1.04 1.14 1.17 1.21 1.26 1.37 1.45 1.50
0.55 0.55 0.55 0.54 0.54 0.54 0.53 0.53 0.52 0.51 0.51 0.51 0.51 0.51 0.52 0.52 0.53 0.53 0.54 0.53 0.53 0.52 0.52 0.52 0.50 0.49 0.48 0.46 0.45 0.43 0.37 0.30 0.25 0.27 0.27 0.32 0.29 0.26 0.28 0.34 0.49 0.51 0.56 0.40 0.33 0.37 0.50 0.59 0.72 0.90 0.94 0.99 1.21 1.07 1.19 1.07 1.33 1.04 1.00 0.97 0.87 1.07 1.20 1.38 1.40 1.40 1.33 1.19 1.22 1.24 1.25 1.16 1.09 1.16 1.22 1.03 0.96 0.93 0.86 0.89 0.98 1.01 1.11 1.24 1.30 1.35 1.38 1.45
0.53 0.54 0.54 0.54 0.53 0.53 0.53 0.53 0.52 0.51 0.50 0.50 0.50 0.50 0.50 0.50 0.50 0.52 0.53 0.53 0.53 0.53 0.51 0.50 0.49 0.48 0.47 0.46 0.46 0.45 0.39 0.28 0.29 0.27 0.40 0.50 0.41 0.30 0.30 0.35 0.43 0.54 0.42 0.38 0.34 0.35 0.50 0.61 0.77 0.85 0.88 0.92 1.05 0.98 1.10 1.07 1.12 1.10 0.97 0.86 0.97 1.20 1.30 1.43 1.51 1.42 1.44 1.35 1.20 1.20 1.22 1.20 1.20 1.19 1.28 1.03 0.92 0.91 0.78 0.77 0.90 0.93 0.96 1.10 1.22 1.30 1.34 1.42
0.52 0.51 0.52 0.53 0.53 0.53 0.53 0.53 0.52 0.51 0.51 0.50 0.49 0.50 0.50 0.50 0.50 0.50 0.52 0.51 0.51 0.51 0.50 0.49 0.47 0.47 0.46 0.45 0.46 0.49 0.40 0.27 0.20 0.34 0.53 0.58 0.51 0.36 0.32 0.35 0.42 0.41 0.35 0.37 0.34 0.34 0.53 0.62 0.79 0.84 0.84 0.85 0.85 0.99 0.93 1.09 0.92 1.11 1.00 0.87 1.03 1.26 1.20 1.40 1.54 1.51 1.49 1.40 1.28 1.22 1.26 1.16 1.25 1.24 1.19 1.07 0.88 0.83 0.86 0.89 0.83 0.89 0.98 1.07 1.20 1.25 1.34 1.39
0.53 0.51 0.51 0.51 0.51 0.52 0.52 0.52 0.52 0.51 0.50 0.49 0.48 0.49 0.49 0.49 0.50 0.49 0.49 0.50 0.50 0.51 0.49 0.46 0.45 0.45 0.43 0.45 0.48 0.54 0.34 0.17 0.21 0.46 0.55 0.61 0.55 0.43 0.37 0.37 0.48 0.41 0.35 0.35 0.34 0.33 0.43 0.61 0.74 0.78 0.79 0.73 0.73 0.78 0.85 1.04 1.11 1.09 0.96 1.09 1.20 1.33 1.24 1.49 1.54 1.56 1.48 1.48 1.36 1.27 1.16 1.12 1.36 1.27 1.16 1.07 0.85 0.73 0.84 0.93 0.98 1.01 1.08 1.07 1.13 1.22 1.31 1.36
0.53 0.52 0.51 0.51 0.51 0.51 0.51 0.51 0.50 0.50 0.48 0.48 0.48 0.49 0.49 0.49 0.49 0.48 0.48 0.49 0.50 0.50 0.48 0.46 0.45 0.42 0.44 0.46 0.49 0.49 0.31 0.14 0.40 0.40 0.70 0.65 0.55 0.46 0.42 0.40 0.49 0.43 0.36 0.34 0.34 0.32 0.34 0.54 0.72 0.72 0.71 0.65 0.65 0.60 0.73 0.92 1.11 0.79 1.02 1.14 1.27 1.36 1.31 1.56 1.55 1.51 1.47 1.39 1.32 1.26 1.33 1.35 1.24 1.17 1.22 1.15 1.01 0.97 1.08 1.05 1.07 1.11 1.16 1.17 1.22 1.20 1.22 1.33
0.54 0.53 0.52 0.51 0.50 0.50 0.50 0.49 0.49 0.48 0.47 0.48 0.49 0.49 0.49 0.48 0.48 0.48 0.48 0.48 0.49 0.50 0.50 0.47 0.43 0.42 0.45 0.50 0.47 0.42 0.31 0.30 0.48 0.49 0.59 0.63 0.58 0.51 0.47 0.47 0.47 0.38 0.34 0.31 0.32 0.29 0.31 0.52 0.71 0.70 0.66 0.62 0.62 0.61 0.70 0.87 1.04 0.91 0.88 1.16 1.23 1.39 1.36 1.58 1.56 1.53 1.43 1.39 1.33 1.47 1.50 1.26 1.23 1.05 1.25 1.13 1.18 1.16 1.13 1.13 1.16 1.20 1.23 1.23 1.14 1.15 1.17 1.29
0.54 0.53 0.52 0.51 0.50 0.49 0.49 0.48 0.48 0.47 0.48 0.49 0.49 0.49 0.48 0.47 0.47 0.48 0.48 0.49 0.50 0.51 0.51 0.46 0.42 0.43 0.49 0.41 0.29 0.23 0.28 0.28 0.47 0.60 0.66 0.63 0.61 0.59 0.52 0.47 0.42 0.33 0.26 0.27 0.30 0.30 0.37 0.56 0.71 0.72 0.63 0.53 0.55 0.56 0.74 0.81 0.96 0.88 0.89 1.14 1.24 1.37 1.47 1.56 1.59 1.52 1.47 1.46 1.50 1.49 1.36 1.28 1.30 1.21 1.22 1.12 1.20 1.22 1.19 1.19 1.21 1.20 1.21 1.19 1.13 1.12 1.20 1.30
0.55 0.54 0.52 0.51 0.49 0.49 0.48 0.48 0.47 0.48 0.49 0.49 0.49 0.49 0.49 0.48 0.49 0.51 0.51 0.52 0.53 0.55 0.56 0.49 0.43 0.48 0.55 0.46 0.27 0.24 0.21 0.37 0.45 0.58 0.62 0.61 0.62 0.57 0.48 0.38 0.40 0.28 0.23 0.27 0.32 0.33 0.43 0.64 0.72 0.73 0.55 0.52 0.58 0.57 0.79 0.74 0.75 1.00 1.03 1.20 1.27 1.32 1.43 1.51 1.55 1.55 1.51 1.51 1.49 1.35 1.35 1.39 1.38 1.40 1.17 1.20 1.24 1.28 1.30 1.22 1.20 1.18 1.14 1.12 1.11 1.12 1.20 1.28
0.55 0.53 0.52 0.51 0.49 0.48 0.47 0.47 0.47 0.48 0.49 0.49 0.50 0.49 0.50 0.51 0.51 0.52 0.53 0.53 0.55 0.59 0.62 0.58 0.51 0.52 0.47 0.34 0.22 0.21 0.25 0.39 0.48 0.51 0.50 0.57 0.59 0.55 0.46 0.38 0.36 0.28 0.20 0.24 0.30 0.33 0.46 0.68 0.67 0.72 0.65 0.59 0.58 0.62 0.84 0.81 0.91 1.12 1.13 1.22 1.25 1.32 1.39 1.48 1.45 1.51 1.55 1.51 1.53 1.32 1.32 1.36 1.49 1.29 1.03 1.26 1.31 1.30 1.27 1.19 1.20 1.14 1.09 1.10 1.10 1.12 1.22 1.28
0.53 0.52 0.51 0.50 0.48 0.47 0.46 0.46 0.47 0.48 0.49 0.49 0.50 0.50 0.51 0.51 0.52 0.52 0.54 0.55 0.57 0.61 0.64 0.63 0.63 0.62 0.40 0.38 0.20 0.18 0.33 0.36 0.49 0.47 0.44 0.46 0.50 0.49 0.44 0.37 0.34 0.26 0.21 0.22 0.26 0.30 0.53 0.69 0.70 0.73 0.64 0.52 0.76 0.84 0.83 0.98 1.18 1.17 1.16 1.20 1.24 1.32 1.38 1.44 1.48 1.49 1.56 1.45 1.57 1.44 1.36 1.45 1.46 1.35 1.13 1.19 1.32 1.27 1.18 1.14 1.14 1.12 1.09 1.08 1.09 1.08 1.20 1.28
0.52 0.51 0.50 0.48 0.46 0.46 0.45 0.45 0.47 0.48 0.49 0.49 0.50 0.51 0.52 0.52 0.52 0.54 0.55 0.58 0.60 0.64 0.66 0.66 0.68 0.63 0.54 0.36 0.23 0.21 0.40 0.42 0.52 0.49 0.40 0.40 0.40 0.48 0.49 0.40 0.32 0.24 0.18 0.15 0.22 0.32 0.48 0.66 0.71 0.66 0.51 0.61 0.81 0.88 0.95 1.20 1.16 1.17 1.18 0.94 1.10 1.22 1.19 1.35 1.31 1.42 1.53 1.45 1.61 1.56 1.37 1.29 1.33 1.21 1.30 1.29 1.32 1.22 1.15 1.09 1.10 1.08 1.08 1.07 1.07 1.08 1.16 1.25
0.51 0.50 0.49 0.46 0.45 0.44 0.44 0.46 0.48 0.49 0.48 0.49 0.50 0.51 0.51 0.52 0.53 0.55 0.57 0.59 0.62 0.67 0.68 0.66 0.70 0.66 0.49 0.26 0.29 0.41 0.40 0.48 0.50 0.52 0.44 0.39 0.39 0.45 0.49 0.45 0.31 0.25 0.18 0.14 0.20 0.44 0.54 0.64 0.69 0.59 0.58 0.51 0.60 0.56 1.13 1.23 1.16 1.20 1.17 1.03 0.97 1.00 0.99 1.25 1.39 1.42 1.46 1.52 1.62 1.57 1.01 1.13 1.26 1.37 1.37 1.35 1.29 1.18 1.11 1.06 1.06 1.06 1.06 1.04 1.03 1.04 1.13 1.27
0.48 0.48 0.46 0.44 0.44 0.43 0.44 0.48 0.50 0.50 0.50 0.50 0.50 0.50 0.51 0.52 0.53 0.57 0.61 0.61 0.64 0.67 0.67 0.69 0.71 0.62 0.46 0.28 0.38 0.47 0.51 0.52 0.48 0.38 0.36 0.38 0.36 0.37 0.43 0.44 0.36 0.27 0.21 0.15 0.29 0.53 0.56 0.62 0.64 0.58 0.55 0.46 0.56 1.12 1.01 1.03 1.11 0.88 1.05 1.06 0.84 0.81 0.81 1.15 1.23 1.36 1.29 1.53 1.60 1.57 1.03 1.12 1.30 1.39 1.43 1.38 1.32 1.13 1.01 1.04 1.04 1.03 1.02 1.00 0.98 1.02 1.10 1.22
0.45 0.45 0.43 0.43 0.43 0.43 0.44 0.49 0.50 0.51 0.52 0.53 0.50 0.50 0.52 0.54 0.58 0.64 0.66 0.66 0.67 0.68 0.69 0.74 0.71 0.52 0.36 0.32 0.47 0.51 0.55 0.57 0.39 0.30 0.38 0.35 0.35 0.36 0.38 0.42 0.35 0.28 0.23 0.20 0.34 0.54 0.63 0.60 0.57 0.48 0.44 0.57 0.80 0.85 0.73 0.74 0.87 0.95 0.76 0.68 0.86 0.75 0.84 1.04 1.26 1.28 1.18 1.44 1.60 1.45 1.09 1.12 1.29 1.39 1.44 1.41 1.32 1.18 1.01 1.02 1.05 1.02 0.99 0.96 0.94 0.99 1.08 1.17
0.44 0.43 0.42 0.42 0.42 0.42 0.44 0.49 0.51 0.51 0.51 0.51 0.49 0.51 0.56 0.63 0.68 0.70 0.72 0.70 0.69 0.69 0.73 0.62 0.58 0.50 0.34 0.26 0.32 0.49 0.42 0.32 0.32 0.35 0.39 0.41 0.38 0.34 0.38 0.36 0.31 0.29 0.25 0.26 0.40 0.53 0.54 0.50 0.46 0.46 0.45 0.64 0.72 0.63 0.62 0.64 0.72 0.87 0.73 0.68 0.69 0.78 0.80 0.87 1.13 1.31 1.38 1.40 1.52 1.38 1.09 1.21 1.27 1.46 1.48 1.46 1.33 1.19 1.04 1.01 1.03 1.03 0.98 0.92 0.90 0.96 1.06 1.14
0.43 0.41 0.40 0.40 0.40 0.41 0.43 0.48 0.50 0.51 0.49 0.49 0.51 0.55 0.62 0.68 0.69 0.73 0.74 0.71 0.68 0.68 0.63 0.47 0.55 0.53 0.23 0.33 0.48 0.34 0.30 0.34 0.39 0.38 0.36 0.41 0.38 0.37 0.37 0.35 0.32 0.27 0.30 0.32 0.44 0.49 0.46 0.45 0.49 0.49 0.56 0.63 0.66 0.61 0.47 0.46 0.52 0.65 0.81 0.67 0.77 0.72 0.79 0.73 1.05 1.25 1.36 1.34 1.24 1.41 1.24 1.23 1.32 1.42 1.46 1.45 1.37 1.21 1.04 0.99 1.01 1.03 0.98 0.91 0.89 0.94 1.02 1.10
0.42 0.41 0.40 0.40 0.40 0.40 0.42 0.48 0.49 0.50 0.50 0.51 0.53 0.61 0.62 0.68 0.72 0.71 0.69 0.67 0.67 0.66 0.61 0.66 0.53 0.38 0.27 0.34 0.25 0.28 0.37 0.36 0.36 0.34 0.36 0.36 0.40 0.38 0.36 0.33 0.29 0.30 0.29 0.30 0.39 0.40 0.42 0.42 0.49 0.41 0.45 0.57 0.59 0.51 0.35 0.33 0.44 0.53 0.63 0.64 0.68 0.81 0.84 0.79 0.80 1.06 1.24 1.31 1.24 1.30 1.26 1.27 1.35 1.42 1.45 1.41 1.40 1.26 1.05 1.00 1.01 1.01 0.96 0.90 0.87 0.91 0.98 1.07
0.41 0.40 0.39 0.39 0.39 0.40 0.42 0.47 0.49 0.51 0.52 0.53 0.59 0.69 0.69 0.70 0.70 0.65 0.54 0.54 0.43 0.32 0.26 0.29 0.32 0.21 0.18 0.26 0.36 0.38 0.37 0.38 0.37 0.35 0.29 0.33 0.37 0.38 0.37 0.36 0.31 0.25 0.22 0.25 0.30 0.35 0.39 0.41 0.44 0.37 0.32 0.42 0.46 0.45 0.40 0.51 0.60 0.59 0.66 0.67 0.70 0.67 0.73 0.76 0.93 1.16 1.21 1.19 1.24 1.24 1.14 1.22 1.33 1.38 1.43 1.42 1.41 1.29 1.11 1.06 1.05 1.02 0.95 0.91 0.88 0.89 0.95 1.03
0.41 0.40 0.39 0.39 0.39 0.41 0.44 0.48 0.50 0.50 0.54 0.52 0.53 0.56 0.52 0.37 0.34 0.33 0.47 0.47 0.35 0.31 0.31 0.33 0.39 0.37 0.37 0.37 0.35 0.42 0.46 0.38 0.31 0.29 0.29 0.35 0.35 0.34 0.33 0.30 0.25 0.23 0.22 0.22 0.26 0.31 0.35 0.31 0.31 0.29 0.31 0.38 0.49 0.56 0.58 0.59 0.66 0.64 0.66 0.65 0.66 0.70 0.76 0.92 0.98 1.14 1.31 1.21 1.22 1.26 1.25 1.25 1.32 1.37 1.40 1.42 1.41 1.31 1.16 1.04 1.01 0.97 0.90 0.89 0.89 0.88 0.91 0.99
0.41 0.39 0.39 0.39 0.40 0.42 0.47 0.49 0.50 0.51 0.55 0.54 0.52 0.43 0.33 0.34 0.29 0.25 0.32 0.33 0.38 0.40 0.37 0.37 0.39 0.37 0.34 0.38 0.41 0.41 0.34 0.31 0.31 0.31 0.31 0.38 0.38 0.32 0.29 0.27 0.23 0.17 0.21 0.25 0.25 0.29 0.30 0.26 0.27 0.33 0.38 0.40 0.44 0.53 0.58 0.56 0.56 0.54 0.56 0.59 0.61 0.69 0.68 0.89 0.93 1.14 1.25 1.16 1.16 1.30 1.26 1.26 1.33 1.39 1.43 1.45 1.38 1.28 1.16 1.05 0.99 0.92 0.89 0.89 0.89 0.88 0.89 0.97
0.40 0.39 0.40 0.40 0.40 0.43 0.47 0.50 0.49 0.50 0.55 0.53 0.48 0.42 0.45 0.46 0.50 0.50 0.43 0.29 0.33 0.38 0.40 0.39 0.42 0.38 0.43 0.42 0.44 0.45 0.41 0.32 0.29 0.30 0.34 0.36 0.34 0.26 0.28 0.24 0.20 0.15 0.19 0.23 0.25 0.23 0.22 0.20 0.27 0.36 0.41 0.42 0.42 0.41 0.45 0.47 0.47 0.54 0.51 0.58 0.59 0.69 0.85 0.96 1.00 1.12 1.19 1.15 1.18 1.25 1.18 1.22 1.30 1.38 1.45 1.40 1.36 1.36 1.29 1.16 1.03 0.91 0.88 0.88 0.89 0.89 0.91 0.98
0.42 0.40 0.40 0.41 0.40 0.43 0.47 0.50 0.47 0.51 0.49 0.46 0.42 0.47 0.46 0.55 0.61 0.57 0.49 0.38 0.30 0.37 0.36 0.38 0.34 0.35 0.35 0.41 0.41 0.47 0.34 0.29 0.28 0.29 0.31 0.37 0.26 0.31 0.27 0.22 0.19 0.19 0.18 0.20 0.20 0.20 0.17 0.20 0.27 0.35 0.39 0.40 0.40 0.40 0.41 0.46 0.53 0.52 0.55 0.53 0.49 0.71 0.72 0.64 0.90 1.05 1.12 1.10 1.08 1.26 1.17 1.23 1.35 1.41 1.43 1.46 1.43 1.42 1.41 1.27 1.13 1.00 0.88 0.86 0.87 0.90 0.93 0.95
0.44 0.41 0.41 0.41 0.41 0.42 0.48 0.47 0.47 0.48 0.43 0.45 0.45 0.47 0.54 0.57 0.60 0.56 0.44 0.33 0.29 0.32 0.34 0.37 0.37 0.34 0.33 0.32 0.39 0.37 0.32 0.30 0.31 0.27 0.35 0.33 0.28 0.31 0.26 0.23 0.23 0.19 0.16 0.18 0.19 0.19 0.18 0.22 0.25 0.30 0.35 0.38 0.37 0.37 0.37 0.40 0.42 0.54 0.55 0.52 0.52 0.65 0.79 0.78 0.81 0.96 1.07 1.13 1.22 1.22 1.14 1.14 1.26 1.24 1.30 1.43 1.51 1.46 1.40 1.27 1.16 1.12 1.02 0.96 0.95 0.97 0.98 0.95
0.48 0.43 0.42 0.42 0.39 0.44 0.45 0.46 0.37 0.37 0.45 0.45 0.45 0.53 0.56 0.57 0.61 0.56 0.43 0.37 0.36 0.32 0.41 0.34 0.38 0.32 0.33 0.39 0.41 0.33 0.34 0.33 0.31 0.33 0.37 0.37 0.33 0.33 0.29 0.30 0.26 0.20 0.20 0.20 0.19 0.18 0.19 0.24 0.25 0.22 0.24 0.30 0.34 0.35 0.36 0.39 0.40 0.48 0.57 0.56 0.57 0.72 0.80 0.84 0.89 0.85 0.81 0.83 1.09 1.10 0.85 0.91 1.15 1.23 1.24 1.34 1.41 1.37 1.39 1.20 1.08 1.09 1.07 1.00 0.91 0.92 0.98 1.00
0.50 0.45 0.42 0.42 0.42 0.38 0.42 0.33 0.35 0.39 0.38 0.38 0.44 0.53 0.56 0.57 0.61 0.61 0.44 0.30 0.20 0.25 0.30 0.26 0.30 0.23 0.32 0.28 0.33 0.34 0.36 0.29 0.37 0.35 0.40 0.38 0.40 0.36 0.29 0.29 0.29 0.21 0.25 0.24 0.23 0.23 0.21 0.25 0.24 0.22 0.23 0.25 0.29 0.32 0.36 0.40 0.39 0.41 0.47 0.62 0.68 0.80 0.84 0.84 0.81 0.80 0.65 0.62 0.94 1.21 0.83 0.80 1.11 1.12 1.25 1.31 1.33 1.32 1.37 1.21 1.08 1.08 1.06 0.98 0.91 0.93 0.94 0.96
0.53 0.47 0.44 0.43 0.43 0.41 0.24 0.23 0.39 0.38 0.32 0.36 0.48 0.55 0.56 0.57 0.63 0.58 0.39 0.24 0.18 0.23 0.21 0.26 0.27 0.25 0.30 0.27 0.29 0.32 0.24 0.26 0.39 0.41 0.38 0.41 0.36 0.41 0.30 0.25 0.29 0.31 0.31 0.30 0.22 0.20 0.23 0.26 0.24 0.24 0.23 0.23 0.24 0.27 0.35 0.40 0.40 0.39 0.64 0.67 0.77 0.81 0.81 0.82 0.82 0.79 0.74 0.91 1.02 1.13 1.04 0.85 0.89 1.07 1.24 1.34 1.29 1.28 1.28 1.22 1.11 1.07 1.07 0.98 0.92 0.93 0.94 0.96
0.53 0.48 0.44 0.44 0.44 0.43 0.30 0.33 0.31 0.27 0.32 0.42 0.55 0.55 0.52 0.60 0.61 0.57 0.39 0.15 0.14 0.26 0.21 0.23 0.24 0.31 0.28 0.28 0.31 0.27 0.27 0.34 0.31 0.34 0.42 0.45 0.40 0.35 0.32 0.27 0.27 0.27 0.30 0.27 0.16 0.25 0.25 0.24 0.24 0.24 0.22 0.21 0.21 0.27 0.35 0.43 0.39 0.46 0.66 0.68 0.73 0.83 0.85 0.85 0.83 0.79 0.81 0.77 0.70 0.91 1.11 0.85 0.83 1.06 1.32 1.32 1.18 1.22 1.22 1.21 1.12 1.07 1.07 1.02 0.95 0.95 0.97 1.00
0.52 0.48 0.44 0.43 0.44 0.44 0.42 0.35 0.31 0.27 0.41 0.55 0.56 0.50 0.56 0.59 0.57 0.42 0.26 0.14 0.21 0.24 0.31 0.22 0.32 0.28 0.26 0.28 0.26 0.27 0.26 0.31 0.27 0.34 0.42 0.45 0.43 0.37 0.29 0.30 0.31 0.30 0.31 0.27 0.20 0.25 0.27 0.28 0.29 0.26 0.23 0.19 0.23 0.29 0.38 0.44 0.40 0.66 0.74 0.80 0.89 0.94 0.91 0.88 0.82 0.79 0.80 0.73 0.61 0.78 1.02 0.81 0.81 1.03 1.10 1.24 1.20 1.14 1.17 1.21 1.17 1.08 1.07 1.06 0.98 0.97 0.99 1.04
0.53 0.46 0.43 0.43 0.41 0.39 0.37 0.39 0.29 0.39 0.52 0.57 0.52 0.54 0.57 0.56 0.45 0.30 0.20 0.13 0.25 0.18 0.24 0.22 0.23 0.22 0.26 0.24 0.23 0.26 0.25 0.27 0.32 0.36 0.38 0.36 0.37 0.40 0.39 0.39 0.31 0.28 0.28 0.31 0.28 0.30 0.31 0.34 0.33 0.27 0.24 0.25 0.27 0.36 0.38 0.46 0.54 0.78 0.73 0.73 0.83 0.85 0.83 0.86 0.83 0.80 0.69 0.58 0.67 0.85 0.98 0.94 0.73 0.94 1.04 1.03 1.05 1.17 1.22 1.24 1.24 1.15 1.12 1.13 1.06 1.00 0.98 1.02
0.52 0.45 0.41 0.43 0.30 0.37 0.35 0.23 0.31 0.47 0.57 0.53 0.51 0.52 0.53 0.46 0.31 0.24 0.14 0.18 0.27 0.23 0.25 0.24 0.21 0.26 0.22 0.22 0.22 0.25 0.27 0.28 0.30 0.34 0.32 0.36 0.34 0.37 0.37 0.31 0.35 0.29 0.29 0.30 0.28 0.29 0.29 0.30 0.29 0.32 0.32 0.39 0.45 0.44 0.58 0.60 0.66 0.65 0.63 0.69 0.71 0.70 0.79 0.72 0.72 0.80 0.54 0.50 0.69 0.82 0.85 0.96 0.71 0.84 1.06 1.20 1.27 1.26 1.29 1.22 1.20 1.15 1.08 1.10 1.10 1.05 1.00 1.01
0.51 0.43 0.40 0.37 0.39 0.44 0.26 0.22 0.38 0.52 0.51 0.49 0.48 0.46 0.45 0.26 0.29 0.17 0.16 0.30 0.16 0.19 0.21 0.24 0.26 0.24 0.23 0.24 0.24 0.25 0.25 0.29 0.30 0.30 0.30 0.30 0.29 0.28 0.30 0.26 0.27 0.23 0.23 0.24 0.24 0.27 0.27 0.28 0.31 0.32 0.47 0.42 0.44 0.46 0.64 0.70 0.70 0.62 0.64 0.65 0.51 0.49 0.51 0.41 0.53 0.44 0.48 0.48 0.71 0.83 0.86 0.80 0.80 0.95 1.12 1.21 1.28 1.31 1.32 1.32 1.26 1.21 1.11 1.11 1.14 1.10 1.05 1.02
0.51 0.40 0.37 0.38 0.42 0.36 0.36 0.39 0.47 0.46 0.48 0.46 0.45 0.48 0.35 0.24 0.16 0.20 0.21 0.21 0.17 0.22 0.21 0.26 0.25 0.26 0.24 0.24 0.24 0.26 0.29 0.27 0.30 0.31 0.33 0.33 0.31 0.30 0.34 0.31 0.32 0.28 0.23 0.26 0.26 0.24 0.27 0.34 0.40 0.44 0.50 0.58 0.44 0.37 0.54 0.54 0.64 0.64 0.55 0.56 0.47 0.41 0.38 0.31 0.39 0.48 0.49 0.62 0.82 0.79 0.91 0.72 0.88 0.98 1.14 1.14 1.26 1.36 1.37 1.37 1.40 1.35 1.23 1.16 1.15 1.16 1.10 1.05
0.49 0.38 0.30 0.38 0.40 0.40 0.41 0.46 0.47 0.46 0.38 0.43 0.44 0.40 0.32 0.20 0.17 0.32 0.24 0.24 0.21 0.24 0.25 0.25 0.27 0.28 0.26 0.23 0.25 0.27 0.26 0.30 0.32 0.30 0.32 0.30 0.31 0.28 0.32 0.34 0.34 0.31 0.29 0.29 0.24 0.24 0.22 0.21 0.27 0.31 0.37 0.62 0.53 0.43 0.44 0.46 0.56 0.55 0.63 0.56 0.48 0.44 0.38 0.31 0.36 0.32 0.37 0.47 0.68 0.89 0.72 0.65 0.70 0.81 1.11 1.15 1.24 1.34 1.44 1.43 1.42 1.42 1.37 1.30 1.24 1.20 1.15 1.07
0.48 0.35 0.36 0.39 0.42 0.42 0.42 0.50 0.49 0.45 0.34 0.37 0.37 0.34 0.24 0.20 0.23 0.22 0.22 0.22 0.24 0.24 0.24 0.29 0.26 0.25 0.25 0.26 0.28 0.29 0.30 0.28 0.33 0.32 0.30 0.29 0.28 0.29 0.29 0.32 0.35 0.34 0.33 0.26 0.29 0.27 0.26 0.26 0.32 0.36 0.39 0.55 0.53 0.63 0.69 0.63 0.61 0.68 0.67 0.65 0.50 0.45 0.58 0.40 0.47 0.45 0.46 0.49 0.53 0.66 0.64 0.78 0.77 1.08 1.18 1.24 1.26 1.28 1.40 1.43 1.43 1.41 1.39 1.34 1.28 1.22 1.16 1.08
0.41 0.33 0.36 0.34 0.38 0.41 0.42 0.50 0.50 0.44 0.36 0.32 0.29 0.28 0.25 0.27 0.23 0.27 0.24 0.28 0.26 0.24 0.24 0.26 0.26 0.23 0.23 0.24 0.27 0.26 0.32 0.28 0.30 0.32 0.30 0.30 0.32 0.29 0.33 0.34 0.34 0.36 0.33 0.27 0.31 0.26 0.28 0.26 0.36 0.38 0.39 0.42 0.52 0.72 0.70 0.67 0.43 0.64 0.62 0.47 0.52 0.70 0.63 0.56 0.56 0.62 0.60 0.50 0.46 0.69 0.67 0.78 0.99 1.03 1.11 1.18 1.21 1.22 1.31 1.39 1.38 1.37 1.37 1.33 1.23 1.20 1.18 1.11
0.34 0.33 0.25 0.35 0.39 0.48 0.49 0.51 0.50 0.42 0.36 0.28 0.26 0.27 0.32 0.31 0.36 0.32 0.37 0.30 0.28 0.27 0.24 0.19 0.23 0.23 0.23 0.23 0.24 0.26 0.28 0.29 0.29 0.29 0.26 0.31 0.29 0.33 0.33 0.34 0.37 0.38 0.38 0.35 0.32 0.36 0.28 0.28 0.35 0.36 0.32 0.38 0.43 0.70 0.79 0.79 0.76 0.67 0.49 0.59 0.76 0.82 0.74 0.55 0.40 0.49 0.45 0.37 0.46 0.62 0.55 0.62 0.68 0.61 1.06 1.06 1.10 1.17 1.20 1.29 1.36 1.37 1.37 1.30 1.24 1.21 1.19 1.14
0.34 0.31 0.33 0.37 0.43 0.53 0.55 0.54 0.49 0.44 0.35 0.25 0.25 0.31 0.41 0.31 0.41 0.36 0.38 0.33 0.32 0.28 0.22 0.19 0.22 0.26 0.24 0.24 0.24 0.26 0.28 0.24 0.26 0.28 0.26 0.30 0.26 0.38 0.34 0.33 0.38 0.38 0.40 0.41 0.34 0.36 0.35 0.28 0.34 0.38 0.38 0.41 0.51 0.67 0.71 0.80 0.82 0.70 0.66 0.85 0.56 0.49 0.42 0.58 0.47 0.35 0.35 0.33 0.38 0.49 0.59 0.61 0.67 0.69 0.90 0.92 0.97 1.08 1.17 1.23 1.27 1.29 1.32 1.28 1.25 1.26 1.27 1.24
0.37 0.31 0.28 0.38 0.52 0.58 0.52 0.55 0.49 0.41 0.30 0.23 0.27 0.29 0.39 0.39 0.43 0.37 0.39 0.37 0.34 0.28 0.21 0.23 0.21 0.25 0.25 0.24 0.25 0.27 0.27 0.23 0.27 0.26 0.24 0.30 0.25 0.35 0.33 0.36 0.34 0.39 0.41 0.41 0.36 0.39 0.38 0.29 0.31 0.40 0.39 0.46 0.55 0.63 0.48 0.63 0.73 0.73 0.74 0.68 0.74 0.67 0.57 0.50 0.49 0.48 0.42 0.35 0.36 0.38 0.52 0.47 0.67 0.76 0.87 0.90 0.99 1.06 1.13 1.18 1.23 1.27 1.28 1.26 1.23 1.26 1.28 1.27
0.29 0.26 0.31 0.47 0.58 0.58 0.55 0.54 0.46 0.38 0.27 0.23 0.30 0.33 0.41 0.35 0.37 0.40 0.41 0.37 0.31 0.26 0.23 0.23 0.24 0.23 0.25 0.25 0.25 0.24 0.28 0.26 0.25 0.26 0.25 0.30 0.28 0.36 0.32 0.37 0.34 0.36 0.40 0.41 0.38 0.42 0.36 0.37 0.30 0.38 0.44 0.42 0.36 0.43 0.44 0.49 0.52 0.53 0.53 0.54 0.60 0.60 0.72 0.62 0.60 0.48 0.42 0.39 0.39 0.39 0.39 0.51 0.68 0.90 0.92 0.95 1.04 1.11 1.16 1.17 1.23 1.29 1.32 1.30 1.25 1.25 1.28 1.28
0.40 0.29 0.34 0.53 0.63 0.60 0.58 0.51 0.39 0.32 0.30 0.36 0.39 0.35 0.37 0.36 0.38 0.39 0.40 0.41 0.35 0.32 0.27 0.25 0.25 0.25 0.26 0.24 0.25 0.27 0.26 0.26 0.27 0.24 0.26 0.28 0.29 0.27 0.35 0.35 0.37 0.36 0.40 0.39 0.36 0.38 0.35 0.35 0.31 0.39 0.36 0.35 0.39 0.48 0.49 0.49 0.51 0.51 0.47 0.46 0.51 0.50 0.49 0.42 0.38 0.53 0.50 0.43 0.39 0.39 0.39 0.53 0.77 1.06 1.04 1.01 1.11 1.18 1.25 1.25 1.26 1.31 1.34 1.35 1.33 1.32 1.33 1.30
0.31 0.26 0.33 0.55 0.59 0.64 0.54 0.41 0.39 0.42 0.39 0.35 0.34 0.39 0.39 0.47 0.41 0.40 0.37 0.37 0.33 0.30 0.31 0.28 0.28 0.27 0.26 0.26 0.26 0.26 0.25 0.25 0.26 0.25 0.27 0.24 0.30 0.30 0.34 0.39 0.38 0.39 0.35 0.33 0.34 0.40 0.40 0.39 0.34 0.35 0.37 0.37 0.44 0.52 0.57 0.60 0.61 0.64 0.63 0.59 0.64 0.55 0.52 0.43 0.33 0.39 0.50 0.51 0.55 0.52 0.44 0.49 0.86 1.07 1.09 1.09 1.15 1.23 1.30 1.30 1.28 1.33 1.37 1.39 1.41 1.40 1.39 1.38
0.33 0.31 0.41 0.47 0.59 0.61 0.52 0.42 0.45 0.42 0.40 0.42 0.46 0.44 0.46 0.44 0.41 0.42 0.36 0.36 0.30 0.30 0.28 0.28 0.29 0.26 0.29 0.27 0.27 0.25 0.26 0.24 0.25 0.25 0.28 0.28 0.30 0.33 0.37 0.39 0.39 0.37 0.36 0.34 0.38 0.38 0.50 0.35 0.31 0.35 0.42 0.45 0.50 0.54 0.57 0.63 0.62 0.58 0.60 0.66 0.62 0.53 0.59 0.49 0.42 0.45 0.44 0.51 0.46 0.49 0.43 0.56 0.86 1.10 1.11 1.12 1.19 1.25 1.34 1.34 1.31 1.35 1.40 1.43 1.44 1.46 1.46 1.45
0.35 0.35 0.37 0.53 0.62 0.61 0.46 0.34 0.35 0.38 0.42 0.46 0.45 0.43 0.47 0.46 0.42 0.40 0.37 0.36 0.33 0.30 0.28 0.27 0.28 0.29 0.28 0.30 0.28 0.25 0.29 0.20 0.28 0.27 0.27 0.30 0.30 0.39 0.39 0.40 0.41 0.36 0.36 0.34 0.32 0.37 0.30 0.35 0.33 0.29 0.31 0.35 0.40 0.47 0.48 0.60 0.62 0.58 0.56 0.63 0.67 0.66 0.61 0.59 0.55 0.53 0.41 0.48 0.49 0.45 0.39 0.51 0.84 1.09 1.13 1.13 1.14 1.19 1.27 1.39 1.42 1.39 1.47 1.51 1.51 1.49 1.48 1.48
0.39 0.43 0.43 0.49 0.59 0.58 0.42 0.44 0.39 0.39 0.41 0.41 0.42 0.40 0.44 0.46 0.47 0.44 0.40 0.35 0.36 0.34 0.31 0.27 0.28 0.29 0.27 0.29 0.28 0.30 0.29 0.25 0.24 0.30 0.30 0.32 0.32 0.39 0.39 0.39 0.41 0.38 0.42 0.43 0.40 0.44 0.35 0.35 0.33 0.26 0.25 0.25 0.27 0.29 0.35 0.43 0.50 0.58 0.62 0.62 0.64 0.60 0.56 0.43 0.35 0.41 0.34 0.46 0.49 0.45 0.45 0.65 0.89 1.02 1.07 1.10 1.14 1.16 1.30 1.39 1.50 1.45 1.44 1.51 1.57 1.55 1.51 1.49
0.37 0.26 0.39 0.43 0.55 0.52 0.51 0.58 0.53 0.43 0.42 0.42 0.40 0.43 0.46 0.42 0.45 0.46 0.41 0.34 0.34 0.33 0.31 0.29 0.28 0.30 0.29 0.29 0.27 0.27 0.27 0.29 0.22 0.25 0.29 0.30 0.32 0.35 0.38 0.39 0.40 0.40 0.46 0.43 0.44 0.41 0.37 0.40 0.38 0.34 0.30 0.28 0.34 0.44 0.57 0.64 0.61 0.50 0.54 0.57 0.57 0.63 0.69 0.52 0.42 0.37 0.33 0.42 0.42 0.48 0.51 0.60 0.74 0.88 0.95 1.04 1.14 1.12 1.23 1.37 1.36 1.45 1.42 1.47 1.53 1.56 1.54 1.50
0.51 0.35 0.38 0.37 0.51 0.54 0.53 0.60 0.56 0.54 0.44 0.50 0.39 0.45 0.42 0.43 0.44 0.41 0.42 0.32 0.33 0.31 0.30 0.30 0.28 0.27 0.29 0.29 0.27 0.28 0.29 0.27 0.28 0.25 0.28 0.30 0.33 0.34 0.38 0.37 0.37 0.39 0.43 0.42 0.43 0.39 0.37 0.34 0.38 0.38 0.38 0.39 0.44 0.50 0.58 0.63 0.57 0.58 0.53 0.51 0.57 0.57 0.61 0.58 0.38 0.37 0.58 0.39 0.33 0.52 0.60 0.55 0.69 0.87 0.95 0.99 1.09 1.17 1.20 1.33 1.46 1.48 1.45 1.44 1.49 1.54 1.57 1.55
0.46 0.51 0.57 0.63 0.48 0.47 0.51 0.53 0.59 0.57 0.56 0.53 0.46 0.49 0.44 0.43 0.43 0.38 0.43 0.40 0.35 0.33 0.29 0.29 0.28 0.28 0.29 0.28 0.29 0.26 0.28 0.26 0.26 0.24 0.29 0.29 0.28 0.31 0.29 0.33 0.31 0.36 0.37 0.36 0.40 0.34 0.33 0.31 0.38 0.39 0.39 0.43 0.47 0.54 0.60 0.59 0.58 0.59 0.58 0.55 0.50 0.55 0.55 0.52 0.57 0.61 0.58 0.39 0.34 0.52 0.62 0.57 0.73 0.90 1.00 1.05 1.10 1.15 1.20 1.24 1.39 1.54 1.58 1.52 1.51 1.55 1.56 1.57
0.65 0.66 0.61 0.73 0.54 0.60 0.60 0.62 0.62 0.59 0.55 0.54 0.51 0.48 0.45 0.45 0.44 0.46 0.43 0.41 0.37 0.32 0.31 0.26 0.27 0.28 0.28 0.30 0.29 0.26 0.27 0.22 0.22 0.26 0.25 0.25 0.24 0.23 0.21 0.24 0.30 0.33 0.31 0.30 0.33 0.37 0.33 0.32 0.36 0.40 0.37 0.42 0.45 0.50 0.58 0.54 0.53 0.55 0.56 0.56 0.57 0.55 0.54 0.59 0.62 0.69 0.63 0.55 0.63 0.62 0.63 0.64 0.80 0.91 1.05 1.12 1.22 1.24 1.29 1.38 1.39 1.40 1.45 1.53 1.56 1.53 1.51 1.59
0.59 0.57 0.53 0.65 0.62 0.61 0.63 0.65 0.61 0.57 0.51 0.57 0.48 0.51 0.48 0.47 0.45 0.48 0.49 0.42 0.34 0.31 0.34 0.29 0.28 0.28 0.29 0.30 0.29 0.27 0.28 0.26 0.26 0.24 0.30 0.27 0.26 0.25 0.22 0.21 0.21 0.28 0.29 0.26 0.28 0.35 0.28 0.30 0.41 0.40 0.36 0.37 0.45 0.50 0.54 0.52 0.49 0.44 0.53 0.58 0.58 0.58 0.57 0.63 0.63 0.67 0.72 0.66 0.67 0.68 0.65 0.64 0.88 1.05 1.11 1.22 1.27 1.31 1.31 1.29 1.33 1.39 1.43 1.47 1.50 1.51 1.46 1.56
0.70 0.76 0.74 0.55 0.44 0.49 0.60 0.60 0.55 0.54 0.49 0.55 0.51 0.54 0.51 0.50 0.48 0.51 0.47 0.49 0.40 0.34 0.32 0.29 0.30 0.29 0.31 0.31 0.30 0.29 0.32 0.32 0.33 0.32 0.33 0.29 0.23 0.28 0.21 0.25 0.27 0.23 0.27 0.26 0.28 0.31 0.29 0.30 0.39 0.37 0.31 0.33 0.40 0.43 0.46 0.50 0.49 0.46 0.45 0.50 0.53 0.52 0.47 0.57 0.59 0.74 0.69 0.62 0.68 0.67 0.61 0.62 0.90 1.05 1.11 1.19 1.21 1.18 1.18 1.24 1.30 1.35 1.41 1.45 1.44 1.49 1.50 1.55
0.76 0.83 0.82 0.69 0.46 0.56 0.47 0.53 0.55 0.51 0.44 0.54 0.56 0.57 0.52 0.53 0.55 0.55 0.44 0.47 0.43 0.40 0.37 0.32 0.32 0.31 0.30 0.30 0.30 0.32 0.35 0.38 0.38 0.38 0.37 0.35 0.32 0.31 0.27 0.26 0.26 0.26 0.27 0.26 0.30 0.28 0.30 0.29 0.28 0.30 0.26 0.28 0.38 0.42 0.44 0.45 0.44 0.38 0.41 0.48 0.55 0.58 0.61 0.66 0.70 0.81 0.83 0.81 0.65 0.58 0.60 0.88 0.98 1.03 1.01 1.08 1.14 1.15 1.17 1.22 1.25 1.32 1.38 1.41 1.43 1.47 1.53 1.56
Wind_Speed
12 12 12 11 12 12 12 12 12 12 12 11 11 10 10 10 10 9 9 9 10 10 10 10 9 9 9 9 9 10 10 10 10 9 10 11 10 11 11 11 12 12 11 9 9 9 8 7 7 7 6 5 4 4 4 3 1 1 1 2 2 1 2 5 6 7 7 7 9 10 10 10 8 6 6 6 7 8 7 8 8 7 8 11 12 14 14 13
12 12 12 12 12 12 12 12 12 12 12 12 12 11 11 10 10 10 10 10 10 10 10 10 10 9 9 9 9 9 9 10 10 10 10 10 10 11 12 12 12 13 12 10 9 9 9 9 9 8 6 6 5 5 5 4 3 1 1 1 1 1 1 5 7 8 7 8 9 9 10 10 8 8 8 6 6 7 8 8 9 9 10 12 13 15 14 14
13 13 12 12 12 12 12 12 12 13 13 13 12 12 11 11 10 10 10 10 10 10 10 10 10 9 9 9 9 9 8 9 9 9 9 9 10 11 12 13 12 13 12 11 10 10 9 9 9 8 7 6 6 5 5 4 4 3 2 2 3 2 2 4 9 10 9 9 10 10 10 9 8 8 7 7 7 7 7 8 9 10 11 13 13 14 14 13
13 13 13 13 13 13 12 13 13 13 13 13 13 12 12 11 11 10 10 10 10 10 10 10 9 9 9 9 9 8 8 8 8 9 9 9 10 10 12 13 13 13 12 11 10 10 10 9 8 8 7 7 7 6 5 5 5 4 3 3 3 2 2 5 10 12 10 10 10 10 10 9 9 8 8 9 7 5 7 9 10 11 13 14 14 14 14 13
14 14 14 13 13 13 13 13 13 13 13 13 13 13 12 12 11 11 11 10 10 10 10 10 9 9 8 9 8 8 7 7 9 10 9 9 10 11 12 13 13 13 12 11 10 10 10 9 8 8 7 7 7 6 6 6 5 4 4 4 3 2 2 4 11 13 11 10 10 11 10 9 9 8 9 10 6 5 8 10 10 12 14 14 14 14 13 13
14 14 14 14 14 14 14 14 14 14 14 13 13 13 13 12 12 11 11 11 10 10 10 9 9 9 8 8 7 7 7 7 9 10 9 9 9 11 12 13 13 13 13 12 11 11 11 10 9 8 7 7 7 7 7 7 7 5 5 4 3 2 1 3 10 12 12 11 10 10 9 9 9 8 9 8 6 7 9 10 11 13 14 14 14 13 13 12
14 15 15 15 14 14 14 14 14 14 14 14 13 13 13 12 12 11 11 10 10 10 10 9 9 8 8 7 6 6 6 7 9 9 9 9 9 11 12 13 13 13 14 14 13 12 12 11 10 9 8 7 8 8 8 7 8 7 5 4 2 1 1 3 9 11 12 12 10 10 9 8 9 8 8 7 6 8 10 11 12 13 14 14 13 13 13 12
15 15 15 15 15 15 15 15 15 14 14 14 14 14 13 12 12 11 11 10 10 10 9 9 8 8 8 7 6 6 6 8 9 9 9 9 10 11 12 13 13 13 14 15 14 13 13 12 11 10 9 9 9 8 8 6 8 8 6 5 3 1 0 3 8 10 10 11 10 10 9 8 8 9 8 8 8 10 11 11 13 14 14 14 13 13 12 12
15 15 15 15 15 15 15 15 15 15 14 14 14 14 13 12 11 11 10 10 10 9 9 8 8 7 7 6 6 6 7 8 8 9 9 10 10 11 12 13 14 14 14 15 15 15 14 13 13 11 10 10 9 8 8 7 7 8 6 5 4 2 2 3 7 9 9 10 11 10 9 9 8 8 8 8 10 11 11 12 13 14 14 13 13 13 12 12
15 15 16 16 16 16 16 15 15 15 14 14 14 13 13 12 11 11 10 10 9 9 8 8 7 7 6 6 5 5 7 7 7 8 9 10 10 11 12 14 15 14 14 15 16 16 15 15 13 12 11 10 9 9 9 8 7 7 6 5 4 3 3 3 6 9 9 10 11 11 10 9 9 8 8 9 11 12 12 13 14 14 14 13 13 12 12 12
16 16 16 16 16 16 16 15 15 15 14 14 14 13 12 11 11 11 10 9 9 8 8 7 7 7 6 6 5 5 6 6 7 8 8 9 10 12 12 13 15 15 15 15 17 18 17 16 14 12 11 10 9 8 8 7 6 7 7 5 5 4 4 4 6 8 10 10 11 12 10 10 10 8 9 11 13 13 14 14 14 15 14 14 13 12 12 12
16 16 16 16 16 16 16 15 15 14 14 14 13 13 12 11 11 11 10 9 8 7 7 7 7 7 6 6 5 6 6 6 7 7 8 9 10 11 12 13 14 15 16 16 18 19 18 16 14 12 11 10 9 8 8 8 7 7 7 7 7 6 6 6 6 8 10 11 13 12 10 12 12 10 10 13 14 14 15 15 15 15 14 14 13 12 12 12
17 17 16 16 16 16 16 15 15 14 14 13 13 12 11 11 11 10 9 8 7 7 7 7 7 7 6 6 5 5 6 7 7 7 8 8 9 10 11 12 13 15 16 16 17 19 19 18 15 13 13 11 10 10 9 8 8 8 7 8 8 8 8 7 7 8 10 13 14 13 13 14 14 11 11 14 15 15 15 15 15 15 14 14 13 12 12 12
17 17 17 16 16 16 16 15 15 14 14 13 12 12 11 11 10 9 8 7 6 6 6 7 7 7 6 6 5 5 6 7 7 7 7 8 8 9 10 11 13 14 16 16 17 18 19 19 16 14 14 13 12 11 9 8 8 8 8 8 8 8 9 8 8 9 10 13 15 14 15 15 15 14 13 14 15 16 16 15 15 15 14 14 13 13 13 13
18 17 17 17 16 16 15 15 14 14 13 12 12 11 11 10 9 8 6 6 6 6 6 7 7 7 7 6 6 6 7 7 7 6 7 7 8 9 10 11 13 14 15 16 16 17 18 18 17 15 14 14 13 11 10 9 9 9 9 9 8 9 9 8 8 10 11 12 14 15 15 15 15 15 15 15 16 16 16 15 15 15 14 14 14 13 13 13
18 18 17 17 16 16 15 14 13 13 12 12 12 11 10 9 8 7 5 5 6 6 6 6 6 7 6 6 6 7 6 7 7 6 6 7 8 8 9 10 12 14 15 15 16 17 18 18 17 16 15 14 13 12 10 10 10 9 9 9 9 9 9 8 8 9 10 11 13 15 16 15 15 16 16 16 17 17 16 16 15 15 14 14 14 14 13 13
18 18 17 17 16 15 15 14 13 12 11 11 11 10 9 7 7 6 4 5 7 7 6 6 6 7 6 6 7 7 6 7 7 5 6 7 7 8 8 9 11 12 14 15 16 17 18 18 17 17 15 14 14 12 11 11 12 10 10 9 9 9 9 8 7 7 10 12 12 14 15 15 15 17 17 17 18 17 17 17 16 15 14 15 15 14 14 13
18 18 17 17 16 15 14 13 11 11 11 11 10 9 7 6 6 5 5 7 7 7 6 6 6 7 6 6 7 7 8 7 6 5 5 6 7 8 8 8 9 11 12 13 15 16 17 18 17 17 16 15 15 14 13 13 13 11 10 9 9 9 9 9 8 8 10 12 12 15 16 15 16 17 16 17 18 18 17 17 17 16 15 15 15 15 15 14
18 18 17 16 16 15 13 12 10 10 10 10 9 8 6 6 5 4 6 7 7 6 6 6 7 6 6 7 7 8 9 7 5 5 5 6 7 7 7 7 8 9 11 12 14 15 16 17 17 17 17 17 17 16 14 14 12 11 10 10 9 9 9 9 8 8 9 11 12 15 17 17 18 17 16 17 18 18 17 17 16 16 15 16 15 15 15 14
18 17 17 16 15 14 12 10 9 9 9 9 8 7 6 7 6 5 7 7 6 6 6 6 6 6 7 8 8 9 9 7 5 4 4 5 6 7 6 6 7 8 10 12 13 13 14 16 18 18 18 18 18 16 16 14 12 11 10 10 9 9 9 8 8 7 8 10 12 14 16 18 19 17 17 17 17 18 17 17 17 16 16 16 16 16 16 15
18 17 16 15 15 13 11 9 8 8 8 8 8 7 6 6 6 6 8 7 6 6 6 6 6 7 8 8 9 9 9 8 6 5 4 5 6 7 7 7 7 8 10 11 12 12 13 15 17 18 18 19 19 18 18 17 14 12 11 11 9 9 9 8 8 8 7 9 11 14 16 18 19 17 17 18 18 18 17 17 17 17 17 17 17 17 16 15
18 17 16 15 14 12 10 8 8 7 6 6 7 6 5 6 5 5 6 6 7 7 6 6 7 7 8 8 8 8 8 8 7 6 4 4 5 6 7 6 7 9 11 10 10 11 12 14 17 19 20 20 19 19 18 18 16 14 12 12 11 10 10 9 8 9 8 8 10 14 16 17 18 17 17 18 18 18 17 17 17 17 17 18 18 18 17 16
18 17 16 15 13 11 9 8 7 5 5 6 6 5 5 6 6 6 5 5 7 7 6 6 7 7 9 9 8 7 7 7 7 6 4 3 4 6 6 6 7 9 10 10 11 11 12 15 17 19 19 19 19 19 19 18 17 15 14 13 12 11 10 9 9 9 9 9 9 12 14 16 17 18 18 19 18 17 16 16 17 17 18 19 19 18 18 17
18 17 15 15 13 11 9 7 5 4 4 5 4 4 6 7 7 6 5 5 6 6 6 6 7 7 8 9 8 7 7 6 6 5 4 3 4 5 6 6 6 8 10 11 12 12 14 15 16 16 18 20 20 20 20 19 18 17 16 14 13 12 11 9 9 9 9 10 10 10 11 15 19 20 21 20 19 18 17 16 16 18 19 19 19 19 19 18
17 16 15 14 12 10 9 6 4 3 4 4 3 4 6 8 7 6 6 6 5 6 6 6 7 7 7 8 8 7 8 7 6 5 3 2 3 4 5 6 6 7 10 10 10 12 14 15 15 16 18 20 21 21 20 20 19 17 17 16 14 13 11 10 10 10 10 11 12 12 10 13 19 23 23 21 20 20 18 17 17 18 19 20 21 20 20 19
17 16 15 14 11 10 7 4 4 4 4 4 3 5 7 7 7 5 6 6 5 6 7 7 6 7 7 8 8 8 8 8 7 4 3 3 3 3 4 5 5 7 9 8 9 11 12 13 14 15 17 18 20 21 21 20 19 17 17 16 14 13 12 11 11 11 11 11 11 13 11 9 15 23 24 23 22 22 20 18 18 18 19 20 22 21 21 20
17 16 15 13 11 9 5 4 5 4 4 4 4 5 7 7 6 5 6 6 6 6 7 7 6 6 7 7 7 7 8 8 8 5 3 3 4 3 4 6 5 6 8 7 8 10 11 12 12 14 15 16 19 20 21 20 18 18 17 15 14 14 13 13 12 11 11 11 11 13 13 10 12 20 24 24 24 24 23 20 18 19 19 21 22 21 21 21
17 16 15 13 11 8 5 5 5 4 4 4 5 6 8 7 6 5 5 5 6 6 6 6 6 6 7 7 6 6 7 8 8 6 5 3 4 3 4 6 6 6 7 6 8 10 10 11 13 13 13 16 18 19 20 20 18 17 16 14 14 14 13 13 12 11 11 11 11 13 14 11 9 15 22 24 25 26 26 22 19 19 20 21 22 21 22 21
17 16 14 13 10 7 5 5 5 4 4 4 5 7 8 6 4 4 5 4 6 6 6 6 6 7 7 7 7 7 7 7 6 6 6 4 4 4 4 6 6 6 7 6 9 10 10 12 13 12 12 15 16 17 19 19 17 17 15 13 12 12 12 11 11 11 10 10 12 14 15 13 9 12 20 25 26 27 26 23 21 20 21 21 22 22 22 21
17 16 14 12 9 6 5 5 5 5 5 5 6 7 6 5 4 4 4 4 6 6 6 6 6 7 7 7 7 8 7 6 6 6 6 5 4 4 4 5 4 5 5 6 8 10 10 11 11 11 12 14 14 14 17 18 17 16 14 13 12 11 10 11 10 10 9 10 12 13 15 15 11 11 17 23 24 25 26 24 22 21 21 21 22 22 22 22
17 16 14 11 9 7 5 5 5 5 5 6 6 6 5 4 4 3 3 5 6 6 7 7 7 6 6 6 6 7 7 7 7 6 6 6 5 5 4 4 4 3 4 5 7 8 8 8 10 11 11 12 12 12 14 16 17 16 15 15 13 11 10 10 10 10 9 10 11 11 12 14 13 12 14 19 21 23 26 26 24 23 22 22 22 22 22 22
17 16 14 11 9 8 7 6 5 5 6 6 5 5 3 3 4 3 5 6 6 6 6 6 6 6 6 5 6 7 7 6 7 6 5 5 5 4 3 3 4 3 4 5 5 6 6 7 9 9 10 12 12 11 13 15 15 15 16 15 13 10 10 11 10 10 11 11 10 10 10 11 13 13 14 17 19 23 26 27 26 24 23 23 23 23 23 23
17 16 13 11 9 8 8 7 6 6 6 6 5 4 3 3 4 4 5 6 6 6 6 6 7 6 5 5 6 6 6 6 7 6 5 4 4 4 3 4 4 3 4 5 4 4 5 6 6 7 10 12 12 13 14 16 17 17 16 15 13 11 10 11 11 11 11 11 10 10 10 10 10 11 13 16 19 22 26 29 28 26 25 24 24 24 24 24
17 15 12 10 9 9 8 8 7 6 6 5 4 4 3 3 4 4 6 6 6 7 7 6 7 7 6 6 6 6 5 6 6 6 6 5 4 4 4 3 2 3 3 4 4 4 5 6 6 7 10 12 12 13 14 15 16 16 16 15 15 14 12 12 12 11 11 10 9 9 9 9 9 9 10 12 17 21 25 28 30 27 26 25 24 25 25 25
16 13 11 9 9 9 9 8 7 6 6 5 4 4 4 5 5 4 6 7 7 7 7 7 6 6 7 7 7 6 5 6 6 6 6 5 4 4 4 4 3 2 3 3 4 5 5 7 8 8 10 12 12 12 12 13 14 16 16 15 15 15 13 11 12 12 12 10 10 10 10 10 11 10 9 9 13 19 23 28 30 29 27 26 25 26 26 26
14 12 10 9 8 7 7 8 7 6 6 5 4 4 5 5 5 4 5 6 6 7 7 7 6 6 7 8 7 7 6 6 6 5 6 5 4 4 4 5 4 3 3 4 5 5 5 7 8 6 8 11 13 13 13 13 15 15 16 16 15 15 13 11 11 11 10 10 10 10 10 10 10 11 10 8 9 16 22 26 30 30 28 27 27 27 27 27
13 11 10 9 8 7 7 7 6 6 6 5 5 6 6 5 5 5 6 6 6 6 6 6 7 6 7 7 7 7 7 6 6 5 5 5 5 5 5 6 6 5 5 5 5 6 6 7 7 6 7 10 11 12 13 14 14 13 15 16 15 13 12 11 11 10 9 10 11 11 11 11 10 10 10 8 8 13 20 25 28 29 29 28 28 28 28 27
13 11 10 9 8 7 7 7 6 6 5 5 6 7 7 6 6 6 7 7 6 6 6 6 7 6 6 6 6 7 6 6 6 5 5 5 5 5 5 5 5 6 6 5 5 6 6 6 7 6 6 8 8 10 13 14 13 13 14 15 14 13 12 12 11 10 10 11 11 11 11 11 11 11 10 10 10 12 18 24 27 29 30 29 28 28 28 28
12 10 9 9 8 8 8 8 7 6 6 6 7 8 7 7 8 8 8 7 6 6 6 7 7 7 6 6 6 7 6 5 5 5 5 5 4 4 5 4 5 6 6 6 6 6 6 6 7 6 6 7 7 9 12 14 13 12 12 13 13 13 12 12 12 12 11 11 11 10 10 10 11 10 10 11 10 11 16 22 26 29 30 30 28 28 28 28
12 10 9 8 8 9 8 8 7 6 7 8 8 8 8 8 9 9 8 8 7 7 7 7 7 7 7 7 7 6 5 5 5 5 5 5 4 5 5 5 5 5 5 5 6 7 7 7 8 7 6 6 8 9 12 13 13 13 12 13 14 13 12 12 12 12 11 11 11 10 10 10 9 8 9 10 10 11 15 20 24 27 29 30 29 28 28 28
11 9 9 8 8 9 9 8 8 8 8 9 8 8 8 8 9 9 9 9 8 8 7 6 6 7 7 7 7 6 6 5 5 5 5 5 4 5 5 5 5 6 6 5 7 8 8 8 9 8 6 7 9 10 11 12 13 13 13 13 14 14 13 12 11 12 12 11 11 10 11 10 8 7 8 9 8 9 14 19 22 25 27 28 29 29 29 28
10 10 10 9 9 10 9 8 9 9 9 9 9 9 9 9 9 10 10 9 9 8 7 7 7 7 7 7 7 6 5 5 5 5 5 5 5 5 6 6 6 6 6 7 8 9 9 9 9 9 9 9 11 10 10 10 11 12 11 11 12 12 12 12 11 12 12 12 11 10 10 10 8 6 7 6 5 6 12 18 21 23 25 27 27 28 28 28
11 11 11 10 10 10 9 9 10 10 10 11 11 11 10 10 9 10 9 9 9 8 7 8 8 8 8 8 8 7 6 5 5 5 5 6 6 6 7 7 6 5 5 7 9 9 9 9 9 10 11 11 10 10 9 9 9 10 10 10 11 11 12 13 13 12 12 12 11 10 10 10 8 6 5 3 3 4 8 15 18 19 22 24 26 27 28 28
12 12 11 11 11 11 10 11 11 11 12 12 11 12 12 11 10 10 9 9 9 8 8 8 9 9 9 8 7 7 6 6 6 6 6 6 6 6 6 7 5 5 5 6 8 9 10 10 10 9 10 10 9 9 10 10 9 10 10 10 10 11 11 12 12 11 11 12 11 10 10 10 9 7 4 2 2 3 4 9 14 16 18 20 23 26 28 27
12 12 12 12 12 12 12 12 11 12 13 12 12 13 12 11 11 11 11 11 11 9 8 9 9 8 8 7 7 7 6 6 6 6 6 6 7 6 6 6 5 5 5 6 6 7 9 10 11 11 11 12 13 12 11 11 10 10 10 10 10 9 10 11 12 11 12 12 11 11 10 9 9 8 5 3 1 1 3 7 12 13 15 17 18 22 26 26
11 12 12 12 12 12 13 12 12 12 13 12 13 13 13 12 12 12 11 11 11 9 8 10 9 8 8 7 7 7 7 7 6 6 6 6 7 7 7 7 6 6 6 5 5 6 7 9 10 12 13 14 15 15 13 12 10 10 11 10 9 9 9 11 12 12 12 12 11 12 11 10 10 9 7 5 3 1 2 7 11 11 12 14 16 18 21 22
11 12 12 12 13 13 13 13 12 13 14 13 14 14 13 13 12 11 11 11 11 9 9 10 9 9 9 7 7 7 8 7 7 6 6 7 8 8 8 7 7 8 7 6 5 6 6 8 9 11 13 13 15 16 14 12 11 11 11 10 10 9 8 9 11 12 13 12 11 12 10 10 11 11 9 8 5 3 2 5 9 10 11 12 14 15 17 17
13 13 13 13 13 13 14 14 14 14 15 15 15 15 14 13 12 11 11 12 11 10 10 10 11 10 10 8 7 7 7 7 7 7 7 8 8 9 9 8 8 8 8 7 6 6 6 8 9 10 12 13 14 15 15 14 13 12 11 11 11 10 8 8 10 12 12 13 13 12 10 10 11 10 10 9 8 6 3 3 6 9 10 11 12 13 14 14
14 14 14 14 14 15 15 16 16 15 16 16 15 15 15 14 13 13 12 12 12 11 10 11 12 11 10 8 6 7 8 7 8 9 8 8 8 8 8 8 9 8 7 7 7 6 7 8 9 9 11 12 14 16 16 15 15 14 13 12 12 11 10 9 10 11 11 12 13 11 10 10 10 10 10 10 9 8 6 5 5 7 8 9 10 11 12 13
14 14 15 15 15 16 16 16 15 15 16 15 15 16 16 15 15 14 13 12 12 12 10 11 12 11 9 8 7 8 9 8 7 9 8 8 8 9 8 9 9 8 7 7 8 7 7 9 9 8 9 12 13 14 15 16 15 15 15 14 13 12 11 10 11 12 12 12 11 11 11 11 11 10 10 10 10 9 8 6 6 6 7 8 9 9 10 11
15 16 15 15 16 17 17 17 15 15 16 16 15 16 16 16 16 15 14 13 13 13 13 12 11 10 9 8 8 9 10 8 8 9 9 8 9 9 9 8 8 7 7 7 8 8 7 8 9 8 9 12 13 13 15 16 15 16 16 15 14 13 12 12 12 12 13 13 12 12 12 12 11 11 10 10 10 9 8 7 6 6 7 8 9 9 9 10
16 16 16 15 16 17 17 17 17 16 17 17 16 16 17 17 17 14 14 14 13 13 14 12 11 9 9 10 11 10 9 8 8 8 9 9 9 9 8 8 7 7 7 6 7 7 7 8 9 9 10 12 12 12 14 14 15 17 18 17 16 15 13 13 13 12 12 13 13 13 13 12 11 9 9 9 10 9 9 8 8 7 7 8 9 9 8 8
Wind_Direction
14 12 10 8 7 6 4 3 1 358 355 352 348 344 338 331 325 319 315 312 309 306 304 302 300 297 294 292 288 283 279 269 260 253 246 244 238 230 226 223 219 215 214 217 217 215 216 218 215 212 212 215 217 214 213 219 240 10 25 32 41 98 194 207 194 175 173 169 167 169 159 152 154 148 138 128 114 116 117 116 122 117 121 129 136 141 142 142
10 8 6 4 3 1 0 359 357 355 353 350 348 344 340 335 329 323 319 314 311 308 306 303 299 296 292 291 288 284 277 264 256 251 246 244 237 230 226 222 218 214 215 219 218 214 213 215 215 213 215 220 224 218 216 224 230 264 322 341 322 314 231 215 190 173 175 173 169 169 162 157 158 152 144 136 123 118 114 117 123 119 122 129 135 141 142 142
6 4 2 360 358 357 355 354 353 352 350 348 345 343 340 335 330 325 321 317 314 311 308 304 300 297 292 289 287 283 272 258 248 244 246 244 235 231 224 221 220 215 216 220 219 215 212 211 211 213 218 227 229 220 220 229 235 247 275 295 282 289 288 224 193 180 180 174 170 169 163 160 163 157 148 140 130 125 127 131 130 128 132 135 139 143 143 145
2 360 357 356 354 352 351 349 349 348 347 345 343 341 338 334 330 325 321 317 315 313 310 306 303 299 294 290 287 278 265 251 244 242 247 244 235 228 221 221 220 217 219 219 217 215 213 209 208 215 219 229 235 226 227 228 235 246 244 266 279 289 299 228 195 181 179 174 170 170 163 162 168 162 149 141 129 128 144 147 143 141 142 141 143 146 147 148
358 355 353 352 350 348 347 346 345 344 343 341 339 338 335 333 328 324 321 318 316 315 311 308 305 301 296 294 286 274 261 250 247 246 248 244 235 227 221 221 221 221 221 219 218 216 215 211 209 217 220 229 234 230 233 225 227 246 247 258 273 281 302 215 188 178 177 173 168 171 169 168 170 163 156 150 139 145 152 152 150 147 147 147 147 150 151 151
354 352 350 348 347 345 344 343 342 341 339 338 336 334 333 331 327 323 320 318 317 315 314 310 306 302 300 296 283 270 262 252 249 247 248 243 234 227 222 221 222 223 223 221 221 218 216 214 211 216 220 231 230 229 238 225 220 242 254 255 263 282 319 189 180 175 175 173 170 175 175 171 166 163 165 162 149 150 152 151 150 148 148 149 150 152 153 153
351 349 347 345 344 343 342 341 339 338 336 334 332 331 331 329 326 322 319 319 317 316 315 311 307 303 302 296 278 269 264 255 251 248 247 241 234 229 223 223 223 223 223 221 221 219 218 214 212 214 218 234 232 231 239 224 218 233 249 245 243 287 359 171 177 175 176 177 176 174 173 171 167 167 173 172 155 148 151 150 149 149 149 151 153 155 155 154
348 346 344 343 341 340 340 339 337 336 334 332 330 330 329 327 324 321 320 320 318 317 315 312 308 305 303 292 277 275 267 258 255 251 248 243 238 232 226 226 226 224 222 220 219 219 218 213 213 215 218 231 232 232 229 219 223 230 239 236 224 230 188 168 176 177 178 182 181 173 173 176 172 171 174 176 164 152 152 151 150 151 151 155 158 159 158 156
346 344 342 341 339 339 338 337 336 334 332 330 329 328 328 326 323 322 322 322 320 318 316 315 312 309 306 291 282 277 262 260 259 253 248 245 242 235 231 230 227 224 221 220 219 217 217 214 216 219 222 229 234 234 221 216 229 226 227 226 210 209 212 186 182 183 185 190 189 179 181 184 179 177 177 178 170 158 155 154 154 155 155 159 161 162 161 158
344 342 341 339 338 337 337 336 335 333 331 330 329 328 327 325 323 323 324 323 322 320 320 321 320 319 314 300 293 276 262 264 262 255 249 244 241 238 235 232 227 224 221 220 218 216 216 214 218 222 223 230 237 235 221 219 225 213 210 213 202 199 210 208 195 193 195 200 198 189 190 193 188 186 185 181 172 162 157 157 159 160 160 162 164 165 164 161
343 341 339 338 337 336 336 335 334 333 331 330 329 328 327 326 325 325 325 323 323 324 327 327 327 329 321 312 303 280 271 268 263 259 251 244 241 238 236 231 227 224 220 219 218 217 215 216 220 222 223 231 235 232 220 216 214 205 204 210 216 208 210 223 211 207 207 211 206 190 190 200 196 194 192 182 173 166 160 159 163 164 164 166 167 168 167 165
342 340 339 337 336 336 336 335 334 333 331 330 329 329 329 328 327 326 325 325 326 330 334 334 335 335 330 324 302 281 282 276 268 263 255 247 241 239 235 230 226 222 219 219 220 218 215 217 221 223 226 228 228 228 221 214 211 213 215 216 225 222 222 234 227 222 218 214 209 193 193 206 201 200 195 182 174 168 163 162 166 167 167 169 170 171 170 167
342 341 339 337 336 336 335 335 334 333 332 331 330 331 332 330 329 328 327 328 330 334 340 342 341 339 336 329 305 288 287 284 280 269 257 249 242 240 236 229 225 222 219 218 220 218 216 219 223 225 228 227 226 225 218 215 219 225 226 220 224 229 231 237 235 230 220 215 215 207 204 207 203 202 195 183 176 168 166 166 168 170 171 171 174 174 172 170
343 341 339 337 336 336 335 335 334 334 333 332 332 334 334 332 331 331 330 330 331 335 341 345 345 343 338 326 312 302 293 292 292 272 251 244 239 237 235 229 224 222 220 219 219 217 216 219 223 227 228 227 223 220 219 226 232 230 229 227 228 233 236 239 237 227 218 218 219 214 210 207 202 202 194 186 181 172 169 171 170 172 174 174 175 177 175 173
342 341 339 338 337 336 336 335 334 334 334 333 334 334 335 335 335 336 338 337 337 338 341 346 348 346 339 329 322 316 307 306 301 273 247 239 233 233 232 226 223 222 220 219 218 217 217 218 222 226 226 224 217 216 224 231 234 231 228 233 234 234 239 241 239 228 218 218 217 213 210 206 203 201 195 188 185 178 173 174 174 174 176 176 177 179 178 176
342 341 340 338 337 337 336 335 335 335 336 336 336 336 337 338 341 347 351 352 352 348 344 349 353 353 347 336 333 330 320 315 307 279 254 242 232 230 229 223 221 221 221 221 218 218 220 220 222 224 221 218 215 216 223 229 236 235 227 230 234 237 243 242 240 233 217 211 217 215 208 205 203 198 194 191 188 184 178 176 177 176 178 179 179 180 181 178
342 341 340 339 338 337 336 336 335 337 338 339 339 339 342 343 349 359 7 4 359 354 353 354 353 352 349 342 343 342 330 319 309 284 259 248 236 230 227 225 221 219 221 220 218 219 221 221 222 223 220 217 217 215 218 230 237 234 228 229 233 237 242 240 239 233 213 208 216 214 207 205 200 193 193 193 189 187 183 180 179 179 179 181 181 182 182 180
342 341 340 339 339 337 337 336 336 339 341 342 344 346 351 352 357 7 8 0 356 359 4 2 1 1 354 350 350 343 334 323 310 285 259 249 239 233 231 228 220 216 219 219 219 220 221 223 221 221 221 218 218 215 216 228 230 224 224 229 234 237 240 240 237 228 213 211 213 208 205 203 195 190 192 191 188 188 186 183 182 182 182 183 183 182 182 182
341 340 339 339 339 338 337 337 338 342 345 348 351 356 5 4 6 10 3 0 3 10 9 1 9 12 355 346 345 342 341 332 313 289 259 247 235 231 233 229 220 216 218 220 222 223 221 223 222 220 220 217 218 218 217 222 219 214 219 225 232 238 240 238 233 227 218 213 211 206 204 201 194 193 193 190 187 188 188 186 186 185 185 186 185 183 181 181
340 339 338 338 339 338 337 337 340 345 350 357 2 9 15 10 12 5 356 2 9 9 3 359 7 2 348 347 349 346 345 339 320 296 264 246 231 226 231 233 228 223 220 220 225 227 223 224 224 222 220 218 220 222 222 222 217 215 222 227 231 239 243 239 229 228 228 221 213 206 203 199 196 195 195 190 188 189 188 188 190 188 188 189 188 186 184 182
339 338 336 337 338 337 336 337 341 345 352 1 8 19 19 10 13 359 353 358 358 359 355 354 2 353 345 349 351 352 351 343 328 304 270 247 236 232 236 236 230 230 230 226 227 231 228 226 227 224 219 218 220 223 225 226 225 223 226 228 232 238 240 239 228 221 230 231 215 203 201 201 199 197 196 193 192 191 190 190 192 191 190 192 191 189 187 184
338 336 335 335 336 335 333 335 338 342 351 -0 10 25 20 9 7 354 355 353 347 355 358 354 358 351 347 349 347 354 355 344 333 314 277 249 246 241 238 233 224 231 236 233 233 239 236 231 230 225 217 215 219 222 224 226 225 224 226 228 234 236 234 235 225 215 224 234 217 202 202 203 201 199 198 197 195 194 193 195 196 194 192 194 193 190 188 185
337 335 334 333 333 333 330 331 333 337 350 357 10 26 17 6 2 358 3 354 343 354 7 5 3 355 355 359 358 4 1 345 334 316 280 251 253 238 228 227 226 232 237 232 231 236 237 232 228 224 216 215 219 220 221 224 224 224 224 227 232 231 231 234 226 216 222 230 219 205 204 205 203 202 202 200 198 197 197 198 200 198 196 196 195 193 189 187
336 334 332 331 331 329 326 324 323 329 342 348 360 12 7 1 359 1 5 0 348 349 356 359 0 358 357 3 8 11 5 352 342 321 278 239 248 240 229 231 231 238 240 231 226 232 237 233 227 223 219 218 221 220 218 220 225 227 224 225 230 228 229 232 224 219 223 226 220 206 206 210 206 204 204 202 201 202 202 201 202 201 199 198 196 194 192 190
335 333 331 329 328 325 320 316 312 318 327 330 336 348 355 353 351 359 6 7 357 346 348 350 353 356 357 3 5 5 6 357 345 329 288 226 234 247 246 241 235 240 240 230 228 236 240 234 227 227 224 219 220 221 218 217 222 227 224 223 225 222 222 222 217 220 224 227 222 211 212 216 209 206 205 203 202 203 202 203 204 203 201 199 196 195 194 192
333 331 330 328 326 323 316 308 305 306 307 309 321 338 345 344 344 354 6 12 0 346 352 354 353 353 353 360 359 1 7 357 347 337 301 259 249 252 254 251 247 245 238 231 235 238 237 233 225 225 225 219 220 222 218 213 216 224 224 220 217 214 215 215 217 223 226 226 224 218 220 223 212 208 206 203 203 204 203 203 204 203 202 201 198 195 194 194
331 329 329 326 324 323 313 299 297 289 286 297 315 332 337 337 339 345 358 4 353 344 349 349 353 354 348 352 357 4 2 352 355 350 312 278 266 262 259 255 252 251 242 236 246 239 230 231 225 223 224 219 218 220 217 210 211 221 223 214 209 211 212 215 220 227 230 229 228 223 221 227 220 211 207 203 203 205 206 205 204 204 203 200 199 195 194 195
328 326 326 323 321 318 303 292 289 274 268 286 311 326 333 334 335 346 1 0 348 345 345 342 348 349 342 345 352 357 353 351 359 347 323 296 270 267 266 253 243 250 244 232 243 240 226 225 224 221 221 219 218 217 212 207 210 219 218 211 210 211 212 217 224 230 234 232 231 226 219 225 231 215 206 203 204 206 206 205 205 204 202 199 198 196 195 196
325 324 322 319 315 308 295 286 277 266 266 284 309 321 329 333 337 356 4 353 345 346 344 341 344 344 344 348 345 344 347 352 354 338 332 320 278 266 269 256 241 245 247 234 238 240 229 225 223 217 216 218 217 212 207 205 210 213 209 208 212 212 215 221 226 231 234 231 230 227 220 224 236 219 206 205 207 207 205 205 206 205 202 199 199 198 196 197
322 320 317 315 309 298 290 282 267 259 267 284 303 317 331 339 348 360 352 343 345 343 342 339 337 341 348 351 346 345 347 344 344 340 337 332 301 284 283 269 244 236 252 256 246 243 239 231 224 218 216 213 208 207 206 200 201 204 205 207 208 210 217 221 226 227 228 232 230 224 220 225 235 225 210 209 210 209 206 206 206 206 203 200 200 200 198 198
320 317 313 309 301 287 281 279 263 254 266 282 299 317 335 341 353 2 337 334 341 343 349 343 333 341 347 345 342 346 349 343 344 347 337 331 319 307 302 280 257 252 270 273 257 250 245 231 225 224 215 202 199 205 203 195 196 204 208 206 203 210 218 220 226 223 220 229 227 220 220 224 232 232 220 216 213 210 210 209 206 206 205 202 202 202 201 200
318 314 309 301 291 280 269 264 260 260 267 278 296 311 321 323 330 332 323 331 337 339 347 343 338 346 344 344 344 342 346 342 342 352 342 332 329 317 295 252 243 257 270 269 262 251 238 227 225 223 211 197 195 201 203 204 207 207 205 203 202 213 221 222 227 224 222 228 224 217 219 225 235 237 227 222 218 214 213 211 209 208 206 204 204 204 204 202
316 312 306 295 284 276 265 258 261 264 265 271 289 302 312 314 304 305 320 329 328 329 336 337 340 346 342 346 344 336 342 338 336 346 344 341 348 334 295 247 223 229 247 254 256 242 234 234 220 213 215 207 200 199 203 210 211 207 204 203 204 209 216 223 227 227 229 230 225 219 220 227 239 239 227 223 222 218 213 211 210 211 209 207 205 205 205 204
314 310 304 292 282 272 261 255 258 262 263 265 277 291 294 289 285 301 317 316 315 323 332 333 334 341 343 340 331 331 344 339 333 337 336 336 340 332 312 279 235 220 235 243 241 220 218 228 217 213 219 215 211 208 207 209 208 209 209 206 208 210 214 221 222 222 223 222 220 220 222 223 227 235 234 230 225 218 213 210 209 211 211 208 206 205 205 204
312 307 299 291 283 270 255 249 253 260 261 260 268 278 270 270 281 299 307 308 315 320 324 328 329 336 337 329 323 328 333 328 328 332 330 329 321 310 303 288 262 233 230 235 237 221 209 222 227 226 220 215 218 217 212 208 206 210 210 208 215 217 217 222 221 216 215 216 220 222 227 228 228 238 244 243 230 217 212 210 208 210 210 208 206 206 204 203
310 303 295 287 280 267 251 245 247 252 255 253 259 265 258 262 277 292 301 310 317 317 321 326 326 329 326 321 323 326 321 317 324 326 319 316 310 302 292 275 257 239 230 224 230 227 217 226 232 231 224 219 217 214 210 207 205 209 211 213 219 218 214 218 221 219 216 221 227 225 232 240 240 244 243 241 234 217 210 208 207 208 208 206 205 205 205 204
308 302 291 282 274 261 245 239 242 249 254 248 244 252 256 262 269 281 300 310 314 320 328 322 317 320 318 318 321 319 318 317 318 319 310 305 302 300 296 277 255 244 236 223 228 227 217 230 235 227 232 231 219 207 205 207 205 207 213 216 219 221 219 215 217 223 222 225 230 227 234 244 242 244 244 240 234 218 209 207 207 209 207 205 205 205 205 206
305 298 287 278 266 251 239 237 243 252 256 247 247 255 258 263 267 275 293 304 309 321 329 314 308 310 307 310 312 310 316 318 313 312 303 297 293 292 295 281 259 255 246 228 232 231 218 229 234 226 234 237 219 200 204 213 212 207 211 215 215 220 226 222 218 221 222 226 234 234 239 243 240 242 245 241 236 222 211 207 207 209 207 205 206 206 206 207
301 294 286 278 259 241 236 238 249 261 258 247 250 256 257 262 269 273 284 296 301 310 313 305 306 308 299 297 299 303 314 314 308 308 300 294 291 286 290 280 265 267 255 230 228 233 225 222 226 234 240 230 214 202 207 216 218 214 213 214 215 216 221 225 223 219 218 224 232 237 241 244 245 246 243 239 238 227 214 209 207 207 207 205 206 207 208 207
296 287 281 277 254 236 236 244 255 261 253 247 247 253 260 265 269 272 278 284 290 297 301 301 306 304 292 289 289 294 307 308 301 304 300 293 285 281 286 281 268 268 260 238 230 231 229 220 221 239 245 220 211 210 209 212 216 218 216 215 219 221 223 229 229 222 218 220 225 231 237 244 249 251 246 240 239 231 216 209 206 206 206 206 206 208 208 207
291 281 274 274 254 236 240 251 257 254 248 250 251 255 265 268 268 276 280 275 277 287 293 297 300 295 288 288 286 285 294 298 295 296 295 292 283 276 285 288 270 261 258 250 239 232 229 222 220 231 237 219 217 216 211 212 212 212 213 215 219 222 222 225 229 227 222 221 223 224 231 243 248 253 253 246 242 235 216 205 203 204 206 207 207 207 208 208
286 276 269 270 257 242 244 252 256 251 245 250 254 256 267 269 267 277 283 277 276 283 291 296 297 293 288 284 282 285 288 285 286 288 286 284 275 268 283 292 277 262 254 247 243 235 228 222 220 226 229 226 225 221 213 213 208 203 208 212 216 219 218 217 223 228 225 225 227 225 230 239 242 249 256 248 241 231 209 203 203 205 207 207 207 207 207 208
281 272 267 267 255 243 248 255 257 254 248 253 258 258 264 268 267 275 281 279 280 285 292 296 295 292 287 282 279 280 280 275 276 278 278 278 274 271 284 293 282 271 263 249 243 238 230 226 223 228 233 232 228 222 214 212 207 205 213 216 215 223 225 220 222 225 224 226 226 224 230 233 233 244 255 241 221 211 204 203 203 205 208 208 208 208 207 208
277 267 265 266 253 243 251 254 252 253 254 258 262 261 265 266 264 271 274 271 274 282 289 292 292 290 288 285 278 271 270 269 268 271 271 271 274 275 287 295 286 273 266 250 241 237 232 228 221 221 230 231 228 226 221 219 216 213 221 226 224 230 231 225 225 226 226 227 220 216 226 229 230 238 247 239 202 192 202 202 199 202 206 207 209 209 207 207
277 264 261 265 255 246 252 254 249 250 254 258 260 261 266 266 264 268 269 266 266 271 282 287 290 293 291 288 281 274 271 266 264 270 269 267 272 275 285 294 291 280 272 256 241 235 230 227 221 215 217 218 219 222 221 223 225 221 227 234 233 236 236 227 223 222 225 228 222 217 224 229 232 235 237 245 233 190 190 191 194 200 200 198 200 201 202 205
277 265 262 265 259 252 254 258 257 255 254 256 258 260 263 265 268 271 269 266 266 269 279 286 288 294 296 289 279 273 272 271 272 273 267 263 267 272 280 287 287 287 284 271 254 242 232 230 225 217 217 216 213 217 219 218 220 223 231 237 234 237 240 229 221 222 227 230 230 228 227 226 229 232 233 236 232 192 180 184 187 193 194 190 189 192 197 203
273 267 262 261 261 259 258 262 265 262 257 254 255 258 263 265 269 274 272 271 272 272 279 285 285 286 287 282 270 262 264 272 278 271 261 262 265 270 277 280 283 289 287 276 266 253 235 235 229 219 222 221 212 216 222 217 216 223 230 236 236 238 241 233 227 230 231 230 233 236 232 224 226 231 234 235 231 216 182 179 184 187 190 191 189 190 196 201
271 267 262 257 257 257 258 262 266 265 261 257 256 258 262 264 269 274 276 278 278 273 273 280 283 279 274 271 265 258 259 268 272 267 262 263 267 276 281 278 279 285 285 279 272 254 232 234 231 223 229 230 221 223 228 222 219 224 229 236 241 239 239 241 238 235 229 225 229 234 227 219 224 230 230 230 231 225 205 181 182 185 189 191 189 191 196 200
271 268 264 260 257 254 256 261 263 262 261 260 259 260 259 261 267 270 271 277 280 273 265 270 277 276 271 266 258 254 255 257 262 264 263 263 268 275 278 275 276 282 282 278 273 259 241 238 233 225 230 234 229 228 230 227 223 227 232 238 243 239 235 239 243 241 231 223 225 228 220 218 227 232 226 221 223 222 212 194 183 182 186 189 189 194 199 200
272 268 266 265 261 257 258 260 259 259 262 261 259 260 258 257 263 268 267 266 271 273 267 262 267 270 268 261 249 247 250 247 254 260 257 262 268 267 268 269 270 278 281 273 269 266 253 243 236 226 229 236 233 230 232 230 226 229 234 238 242 240 235 234 238 241 235 225 222 223 219 220 227 230 226 220 217 217 216 207 192 184 185 187 188 193 197 199
272 268 266 264 262 260 259 259 257 256 259 260 257 259 260 257 260 266 266 259 257 265 266 258 260 269 268 256 246 248 248 245 253 255 249 255 260 257 263 264 257 267 277 268 267 270 257 244 238 230 231 236 236 236 237 233 231 233 236 238 240 240 236 234 234 235 233 230 229 226 224 226 226 224 225 223 218 218 223 222 210 197 191 188 188 188 189 194
273 270 267 262 262 262 260 260 259 256 256 257 257 260 260 258 259 262 265 264 259 263 266 255 251 264 264 250 246 249 247 246 255 257 253 260 262 254 258 256 245 254 263 259 266 270 255 241 236 230 232 238 240 239 238 235 234 236 235 233 234 235 236 236 235 233 233 232 231 227 225 228 227 225 228 228 221 219 224 226 222 216 207 196 193 194 193 195